TimeCST,TemperatureF,Dew PointF,Humidity,Sea Level PressureIn,VisibilityMPH,Wind Direction,Wind SpeedMPH,Gust SpeedMPH,PrecipitationIn,Events,Conditions,WindDirDegrees,DateUTC
12:14 AM,-18.4,-25.6,70,30.31,10.0,Calm,Calm,-,N/A,,Clear,0,2014-01-03 06:14:00
12:33 AM,-18.4,-23.8,76,30.31,10.0,Calm,Calm,-,N/A,,Clear,0,2014-01-03 06:33:00
12:53 AM,-16.6,-20.2,84,30.28,10.0,SSE,3.5,-,N/A,,Clear,160,2014-01-03 06:53:00
1:13 AM,-13.0,-18.4,77,30.26,10.0,SSE,4.6,-,N/A,,Clear,150,2014-01-03 07:13:00
1:33 AM,-13.0,-18.4,77,30.26,10.0,SSE,3.5,-,N/A,,Clear,160,2014-01-03 07:33:00
1:53 AM,-13.0,-18.4,77,30.25,10.0,SSE,3.5,-,N/A,,Clear,150,2014-01-03 07:53:00
2:13 AM,-13.0,-18.4,77,30.25,10.0,South,4.6,-,N/A,,Clear,170,2014-01-03 08:13:00
2:33 AM,-11.2,-18.4,70,30.24,10.0,SSE,4.6,-,N/A,,Clear,160,2014-01-03 08:33:00
2:53 AM,-9.4,-16.6,71,30.23,10.0,South,6.9,-,N/A,,Scattered Clouds,170,2014-01-03 08:53:00
3:13 AM,-9.4,-14.8,77,30.21,10.0,SSE,8.1,-,N/A,,Mostly Cloudy,160,2014-01-03 09:13:00
3:33 AM,-7.6,-14.8,71,30.18,10.0,SSE,8.1,-,N/A,,Mostly Cloudy,150,2014-01-03 09:33:00
3:54 AM,-7.6,-14.8,71,30.17,10.0,SSE,8.1,-,N/A,,Scattered Clouds,150,2014-01-03 09:54:00
4:13 AM,-5.8,-13.0,71,30.14,10.0,SE,9.2,-,N/A,,Mostly Cloudy,140,2014-01-03 10:13:00
4:33 AM,-5.8,-14.8,65,30.12,10.0,SE,10.4,-,N/A,,Mostly Cloudy,130,2014-01-03 10:33:00
4:54 AM,-5.8,-14.8,65,30.11,10.0,SE,8.1,-,N/A,,Overcast,130,2014-01-03 10:54:00
5:13 AM,-5.8,-14.8,65,30.10,10.0,SE,10.4,-,N/A,,Overcast,140,2014-01-03 11:13:00
5:33 AM,-4.0,-13.0,65,30.08,10.0,SE,12.7,-,N/A,,Overcast,140,2014-01-03 11:33:00
5:54 AM,-2.2,-13.0,60,30.06,10.0,SE,8.1,-,N/A,,Overcast,140,2014-01-03 11:54:00
6:13 AM,-2.2,-11.2,66,30.04,10.0,SE,10.4,-,N/A,,Overcast,140,2014-01-03 12:13:00
6:33 AM,-2.2,-11.2,66,30.02,10.0,SE,12.7,-,N/A,,Overcast,140,2014-01-03 12:33:00
6:54 AM,-0.4,-11.2,60,29.99,10.0,SE,12.7,-,N/A,,Overcast,140,2014-01-03 12:54:00
7:13 AM,-0.4,-11.2,60,29.97,10.0,SE,15.0,-,N/A,,Overcast,140,2014-01-03 13:13:00
7:33 AM,1.4,-9.4,61,29.94,10.0,SE,13.8,19.6,N/A,,Overcast,140,2014-01-03 13:33:00
7:54 AM,1.4,-7.6,66,29.92,10.0,SE,15.0,18.4,N/A,,Overcast,140,2014-01-03 13:54:00
8:13 AM,1.4,-7.6,66,29.91,10.0,SE,13.8,20.7,N/A,,Overcast,140,2014-01-03 14:13:00
8:33 AM,3.2,-5.8,66,29.88,10.0,SE,15.0,-,N/A,,Overcast,140,2014-01-03 14:33:00
8:53 AM,3.2,-5.8,66,29.88,10.0,SSE,10.4,-,N/A,,Overcast,150,2014-01-03 14:53:00
9:13 AM,5.0,-4.0,66,29.86,10.0,SSE,12.7,-,N/A,,Overcast,150,2014-01-03 15:13:00
9:33 AM,6.8,-2.2,67,29.85,10.0,SSE,12.7,16.1,N/A,,Overcast,150,2014-01-03 15:33:00
9:53 AM,6.8,-0.4,72,29.82,10.0,SSE,17.3,20.7,N/A,,Overcast,150,2014-01-03 15:53:00
10:13 AM,8.6,-0.4,67,29.80,7.0,SSE,18.4,24.2,N/A,,Overcast,160,2014-01-03 16:13:00
10:33 AM,8.6,1.4,73,29.79,4.0,SSE,17.3,27.6,N/A,Snow,Light Snow,160,2014-01-03 16:33:00
10:53 AM,10.4,1.4,67,29.78,7.0,SSE,15.0,19.6,N/A,Snow,Light Snow,150,2014-01-03 16:53:00
11:13 AM,10.4,3.2,73,29.74,10.0,South,17.3,23.0,N/A,,Overcast,170,2014-01-03 17:13:00
11:33 AM,10.4,3.2,73,29.72,7.0,SSE,13.8,23.0,N/A,,Overcast,160,2014-01-03 17:33:00
11:53 AM,12.2,5.0,73,29.70,10.0,SSE,13.8,19.6,N/A,,Overcast,160,2014-01-03 17:53:00
12:13 PM,14.0,6.8,73,29.68,7.0,SSE,16.1,24.2,N/A,,Overcast,160,2014-01-03 18:13:00
12:33 PM,15.8,8.6,73,29.66,7.0,SSE,15.0,-,N/A,Snow,Light Snow,160,2014-01-03 18:33:00
12:53 PM,15.8,8.6,73,29.64,4.0,South,16.1,24.2,N/A,Snow,Light Snow,170,2014-01-03 18:53:00
1:13 PM,15.8,10.4,79,29.62,3.0,SSE,13.8,23.0,N/A,Snow,Light Snow,160,2014-01-03 19:13:00
1:33 PM,15.8,10.4,79,29.61,5.0,South,15.0,24.2,N/A,Snow,Light Snow,170,2014-01-03 19:33:00
1:53 PM,15.8,10.4,79,29.59,5.0,South,12.7,26.5,N/A,Snow,Light Snow,170,2014-01-03 19:53:00
2:13 PM,15.8,10.4,79,29.58,7.0,SSE,11.5,21.9,N/A,Snow,Light Snow,160,2014-01-03 20:13:00
2:33 PM,17.6,10.4,73,29.57,7.0,South,16.1,24.2,N/A,Snow,Light Snow,170,2014-01-03 20:33:00
2:53 PM,17.6,10.4,73,29.56,5.0,SSE,17.3,23.0,N/A,Snow,Light Snow,160,2014-01-03 20:53:00
3:13 PM,17.6,10.4,73,29.56,7.0,SSE,10.4,21.9,N/A,Snow,Light Snow,160,2014-01-03 21:13:00
3:33 PM,17.6,10.4,73,29.54,7.0,SSE,15.0,21.9,N/A,,Overcast,160,2014-01-03 21:33:00
3:53 PM,17.6,12.2,79,29.54,10.0,South,13.8,19.6,N/A,,Overcast,170,2014-01-03 21:53:00
4:13 PM,17.6,12.2,79,29.53,10.0,SSE,12.7,18.4,N/A,,Overcast,160,2014-01-03 22:13:00
4:33 PM,17.6,12.2,79,29.50,10.0,SSE,16.1,-,N/A,,Overcast,160,2014-01-03 22:33:00
4:53 PM,19.4,12.2,74,29.49,10.0,SSE,15.0,-,N/A,,Overcast,150,2014-01-03 22:53:00
5:13 PM,19.4,15.8,86,29.49,10.0,SSE,11.5,20.7,N/A,,Overcast,160,2014-01-03 23:13:00
5:33 PM,19.4,15.8,86,29.49,5.0,SSE,10.4,-,N/A,,Mostly Cloudy,160,2014-01-03 23:33:00
5:53 PM,19.4,15.8,86,29.48,7.0,SE,9.2,16.1,N/A,,Overcast,140,2014-01-03 23:53:00
6:13 PM,19.4,15.8,86,29.48,7.0,SSE,12.7,18.4,N/A,,Overcast,160,2014-01-04 00:13:00
6:33 PM,21.2,17.6,86,29.47,5.0,SSE,10.4,-,N/A,,Overcast,160,2014-01-04 00:33:00
6:53 PM,21.2,17.6,86,29.46,5.0,SSE,13.8,-,N/A,,Overcast,160,2014-01-04 00:53:00
7:13 PM,21.2,19.4,93,29.45,7.0,SSE,11.5,18.4,N/A,,Overcast,150,2014-01-04 01:13:00
7:33 PM,23.0,19.4,86,29.44,10.0,SSE,15.0,19.6,N/A,,Mostly Cloudy,160,2014-01-04 01:33:00
7:53 PM,24.8,19.4,80,29.43,10.0,SSE,13.8,-,N/A,,Mostly Cloudy,160,2014-01-04 01:53:00
8:14 PM,24.8,19.4,80,29.42,10.0,SSE,15.0,18.4,N/A,,Overcast,160,2014-01-04 02:14:00
8:33 PM,24.8,19.4,80,29.42,10.0,South,12.7,-,N/A,,Overcast,170,2014-01-04 02:33:00
8:53 PM,26.6,21.2,80,29.41,7.0,South,11.5,-,N/A,,Overcast,180,2014-01-04 02:53:00
9:14 PM,26.6,21.2,80,29.41,7.0,South,11.5,18.4,N/A,Snow,Light Snow,170,2014-01-04 03:14:00
9:33 PM,26.6,21.2,80,29.41,7.0,South,11.5,17.3,N/A,,Overcast,170,2014-01-04 03:33:00
9:53 PM,26.6,23.0,86,29.40,5.0,South,11.5,17.3,N/A,Snow,Light Snow,170,2014-01-04 03:53:00
10:14 PM,26.6,23.0,86,29.39,5.0,SSE,12.7,17.3,N/A,Snow,Light Snow,160,2014-01-04 04:14:00
10:33 PM,28.4,24.8,86,29.38,5.0,SSE,10.4,18.4,N/A,Snow,Light Snow,150,2014-01-04 04:33:00
10:53 PM,28.4,24.8,86,29.39,10.0,South,12.7,19.6,N/A,,Overcast,180,2014-01-04 04:53:00
11:14 PM,28.4,26.6,93,29.39,10.0,South,12.7,-,N/A,,Overcast,190,2014-01-04 05:14:00
11:33 PM,28.4,26.6,93,29.37,10.0,South,9.2,-,N/A,,Overcast,180,2014-01-04 05:33:00
11:53 PM,28.4,26.6,93,29.36,10.0,South,10.4,-,N/A,,Overcast,170,2014-01-04 05:53:00